Overview Statistics Trail Chart Weather Telemetry Raw packets
 

This is the latest recevied weather packets stored in our database for station/object SQ5AAG-2. If no packets are shown the sender has not sent any weather packets the latest 10 day(s).

<< 5 6 7 8 9 10 11 >>
Time Temp. Humidity Pressure Rain* Wind** Luminosity Snow
1788520291 22.22° C 60% 995.7 hPa 0 mm - - -
1788519991 22.78° C 60% 995.7 hPa 0 mm - - -
1788519690 22.78° C 60% 996 hPa 0 mm - - -
1788519407 22.78° C 60% 996.1 hPa 0 mm - - -
1788519090 22.78° C 61% 995.9 hPa 0 mm - - -
1788518790 22.78° C 61% 996 hPa 0 mm - - -
1788518489 22.78° C 63% 996 hPa 0 mm - - -
1788518189 22.22° C 63% 996 hPa 0 mm - - -
1788517889 22.22° C 63% 996.2 hPa 0 mm - - -
1788517588 21.67° C 65% 996.2 hPa 0 mm - - -
1788517288 21.67° C 65% 996.3 hPa 0 mm - - -
1788516988 21.67° C 64% 996.3 hPa 0 mm - - -
1788516687 21.67° C 64% 996.3 hPa 0 mm - - -
1788516387 21.67° C 65% 996.4 hPa 0 mm - - -
1788516087 21.67° C 66% 996.3 hPa 0 mm - - -
1788515787 22.22° C 65% 996.3 hPa 0 mm - - -
1788515486 22.22° C 66% 996.3 hPa 0 mm - - -
1788515186 22.22° C 67% 996.3 hPa 0 mm - - -
1788514886 22.22° C 68% 996.3 hPa 0 mm - - -
1788514585 21.67° C 68% 996.3 hPa 0 mm - - -
1788514285 21.67° C 69% 996.4 hPa 0 mm - - -
1788513985 21.67° C 70% 996.4 hPa 0 mm - - -
1788513686 21.67° C 71% 996.6 hPa 0 mm - - -
1788513384 20.56° C 71% 996.6 hPa 0 mm - - -
1788513085 20.56° C 73% 996.6 hPa 0 mm - - -

* Rain latest hour (hover to see other rain measurements)
** Current wind speed in m/s (hover to see current wind gust speed)